Wind_Speed
44 45 45 46 47 48 49 50 51 50 49 49 50 51 52 52 52 52 52 52 52 53 53 53 54 54 54 53 53 53 52 51 50 49 49 49 50 50
45 46 46 47 48 48 49 50 51 52 51 51 51 52 52 52 52 52 52 52 53 53 53 54 55 54 54 53 52 51 49 48 47 47 47 47 47 48
46 47 48 49 49 49 50 50 51 52 52 51 52 51 51 51 51 52 52 52 53 54 54 54 53 53 52 51 50 49 48 47 46 46 46 46 46 47
48 48 49 50 51 50 50 51 51 52 52 51 51 50 50 51 52 52 52 53 54 54 54 53 53 52 50 49 48 47 46 46 46 46 46 46 46 46
49 50 50 51 51 51 51 51 52 52 52 52 51 50 50 52 52 53 53 53 53 53 53 52 51 51 50 49 48 47 46 45 45 45 45 45 45 45
50 50 50 51 51 51 51 52 52 52 52 52 51 51 52 52 52 52 52 52 52 52 51 51 50 49 49 48 47 46 46 45 45 44 44 44 44 44
50 51 51 51 52 52 52 51 52 51 51 51 52 52 52 52 52 51 51 50 50 50 50 49 49 48 47 46 46 45 45 44 44 44 44 44 44 44
50 51 50 51 51 52 52 52 52 52 52 52 52 52 51 51 51 50 49 49 49 49 49 48 48 47 46 46 45 44 44 44 44 44 43 43 44 44
51 51 51 51 51 51 51 51 52 52 52 53 52 51 50 50 50 50 49 50 49 49 49 47 47 47 46 44 44 43 43 43 43 43 43 43 43 42
50 51 50 51 51 51 51 51 51 52 52 52 51 50 50 49 49 49 49 49 48 48 48 47 46 45 44 43 43 43 43 43 43 43 42 42 42 41
50 50 50 50 50 51 51 50 51 51 50 50 50 49 50 49 50 50 49 49 47 47 47 46 45 43 43 43 43 43 43 43 42 42 43 42 41 40
49 49 49 50 50 50 50 50 50 49 49 49 48 48 49 48 49 48 48 48 47 45 45 45 44 43 42 42 43 42 42 42 42 43 43 42 40 39
48 48 49 49 49 49 49 49 48 48 48 47 47 48 47 46 46 46 46 46 46 45 45 45 44 43 42 41 41 41 41 41 41 41 40 40 38 37
48 48 48 48 47 47 47 47 47 46 46 46 46 46 45 45 45 45 46 46 46 45 44 44 43 42 41 40 39 39 39 39 39 39 38 37 36 35
48 47 47 46 46 46 46 46 46 45 45 45 45 44 44 44 45 45 45 44 44 44 43 42 41 40 39 38 37 38 38 37 38 37 37 37 35 34
46 45 44 44 44 44 45 45 45 44 44 43 42 42 42 42 43 43 42 42 42 41 41 40 38 38 37 37 36 36 37 37 37 37 37 36 35 35
43 42 42 42 43 43 43 43 43 42 41 41 41 42 42 42 42 42 41 41 40 39 38 38 37 36 36 36 35 35 36 36 37 37 36 35 35 35
40 40 41 41 41 42 42 42 41 41 41 41 41 41 40 40 40 39 39 38 38 37 36 36 35 35 34 34 35 35 36 36 36 36 36 34 33 33
39 39 39 39 40 40 40 39 39 39 39 39 39 39 39 38 37 36 36 36 36 36 35 35 34 34 34 34 34 36 36 36 35 35 34 33 31 30
38 38 38 39 39 39 39 38 38 38 37 37 37 36 35 35 34 34 35 35 35 34 34 34 34 34 34 34 34 35 36 36 35 34 32 31 29 29
37 37 37 37 37 37 36 36 35 35 35 34 34 33 33 32 33 34 34 34 33 33 32 32 32 33 33 34 34 33 33 34 33 32 30 29 28 27
35 35 35 34 34 34 33 32 32 32 32 31 31 31 31 32 32 33 33 33 33 32 32 32 32 33 33 33 32 31 30 30 30 30 29 27 27 25
33 33 32 32 32 32 31 31 31 31 31 31 31 31 31 32 32 32 32 32 32 31 31 31 32 32 32 31 30 29 29 29 28 28 27 26 25 24
Wind_Direction
286 287 287 288 289 290 291 291 292 292 294 295 294 294 296 296 296 296 297 297 297 298 298 299 299 299 299 299 298 298 297 296 295 294 293 291 289 287
286 287 287 288 289 290 291 292 292 293 295 295 295 295 296 296 296 297 297 298 299 299 299 299 300 300 300 300 299 298 297 296 296 296 295 294 292 289
286 287 287 288 289 291 292 292 293 294 295 295 295 295 296 296 297 297 298 299 299 300 300 300 301 300 300 300 299 298 297 296 296 296 296 295 294 292
286 286 287 288 289 291 292 293 294 294 295 296 296 296 296 296 297 297 298 299 299 300 300 300 300 300 300 299 298 298 297 297 296 296 296 295 295 294
286 286 287 288 289 291 292 293 293 294 295 295 296 296 296 297 297 297 298 298 299 299 300 300 300 299 298 298 298 297 297 297 297 297 297 296 296 296
286 287 287 288 289 291 292 292 293 294 294 295 295 296 295 297 297 297 297 298 298 299 299 299 299 298 298 298 298 297 297 297 297 297 297 297 298 297
286 287 287 288 289 290 291 292 292 293 293 294 295 296 296 297 297 297 297 298 299 299 299 299 299 299 298 298 297 297 297 297 297 297 297 298 298 298
286 287 288 288 289 289 290 291 291 292 293 294 295 296 297 297 297 297 297 298 298 298 298 298 299 299 298 298 297 297 297 297 297 298 297 298 298 298
286 287 287 287 288 289 290 290 291 292 293 293 294 296 297 297 297 297 298 298 299 299 298 298 298 298 299 298 298 298 299 299 299 299 299 299 299 298
286 287 287 287 288 289 289 290 291 292 293 293 295 295 295 296 297 298 298 298 299 299 299 299 299 299 299 298 299 300 301 300 300 300 300 300 300 298
285 286 286 287 288 289 289 290 291 292 292 293 294 294 295 296 297 298 298 298 298 298 298 299 299 299 299 299 300 301 301 301 301 301 301 301 300 298
285 286 286 287 288 289 289 289 290 291 291 292 293 294 295 297 298 298 298 299 299 299 298 299 299 299 298 298 299 301 301 301 301 302 302 301 300 298
285 286 287 287 287 288 289 289 290 290 291 292 293 294 295 296 297 297 298 299 299 300 299 300 300 300 299 299 299 301 301 301 302 303 302 302 300 298
286 287 287 287 287 288 289 289 290 291 292 292 293 294 295 296 297 299 299 300 300 301 301 301 301 300 300 300 300 301 301 301 302 303 303 303 301 299
286 286 287 287 287 288 288 289 290 290 291 293 294 294 294 295 298 299 300 300 300 301 301 302 301 300 300 300 301 301 301 302 303 303 304 303 301 299
286 286 286 286 287 288 289 290 291 291 292 293 294 295 295 297 298 299 299 299 300 300 301 301 300 300 300 300 301 302 302 302 303 304 304 303 302 301
286 286 286 286 287 288 290 290 291 291 292 293 294 295 296 296 298 299 299 300 300 300 300 301 301 301 301 301 302 302 303 304 305 305 305 303 302 302
287 287 287 286 287 289 290 290 290 291 291 293 294 295 296 297 298 298 299 300 300 300 301 300 300 301 302 302 303 304 305 306 306 306 305 303 302 302
286 287 287 288 289 290 290 291 291 291 292 293 295 296 296 297 297 298 300 301 301 301 301 301 300 301 302 304 305 306 307 307 307 307 306 304 302 302
286 286 287 288 289 290 291 290 291 292 292 294 296 296 297 297 298 300 301 302 302 302 302 302 302 303 305 306 307 307 308 309 309 309 307 305 305 305
286 287 288 290 290 291 291 291 292 292 293 294 296 297 298 299 300 302 303 304 304 304 304 304 305 305 307 308 309 309 309 311 312 312 309 307 306 307
285 287 288 289 290 291 292 292 292 293 294 295 296 298 299 300 302 303 303 304 304 304 304 305 306 307 308 309 310 310 311 313 314 314 313 309 308 308
285 286 287 288 289 290 290 291 292 293 295 296 297 298 299 300 302 302 304 304 304 304 304 305 306 308 310 310 310 311 313 313 314 314 312 310 310 312
Height
5741 5739 5737 5734 5731 5729 5725 5722 5719 5716 5715 5712 5707 5702 5697 5693 5689 5684 5680 5675 5671 5666 5661 5656 5652 5647 5642 5637 5632 5627 5622 5618 5613 5609 5606 5602 5599 5597
5731 5728 5726 5723 5720 5717 5714 5710 5706 5704 5702 5700 5694 5689 5685 5681 5676 5671 5667 5663 5658 5653 5648 5643 5638 5633 5628 5623 5618 5613 5608 5604 5600 5596 5592 5588 5585 5581
5719 5717 5714 5711 5709 5705 5702 5698 5695 5691 5688 5687 5682 5677 5672 5668 5663 5659 5655 5650 5645 5640 5635 5630 5625 5620 5615 5610 5605 5600 5596 5591 5587 5583 5579 5575 5571 5568
5708 5705 5702 5699 5697 5693 5690 5686 5683 5678 5675 5673 5670 5665 5660 5656 5651 5647 5643 5637 5632 5627 5622 5616 5611 5606 5601 5597 5592 5588 5583 5579 5575 5570 5567 5563 5558 5554
5696 5693 5690 5687 5685 5681 5678 5674 5670 5666 5662 5659 5656 5652 5648 5643 5639 5635 5630 5624 5619 5614 5609 5603 5598 5593 5589 5584 5579 5575 5571 5567 5562 5558 5554 5550 5545 5541
5684 5681 5678 5675 5672 5669 5665 5662 5658 5654 5650 5646 5643 5640 5636 5631 5626 5622 5618 5612 5607 5602 5596 5591 5586 5580 5576 5571 5567 5563 5558 5554 5550 5545 5541 5537 5533 5529
5672 5669 5666 5663 5659 5656 5653 5649 5645 5641 5638 5634 5630 5627 5623 5618 5613 5608 5604 5600 5595 5589 5584 5579 5574 5569 5564 5560 5555 5551 5546 5542 5537 5533 5529 5525 5521 5517
5659 5656 5653 5650 5647 5644 5640 5636 5633 5629 5625 5621 5618 5614 5610 5605 5600 5595 5591 5588 5584 5579 5573 5568 5562 5557 5552 5548 5543 5539 5534 5529 5525 5521 5517 5513 5508 5504
5646 5644 5641 5638 5634 5631 5628 5624 5620 5616 5612 5608 5605 5601 5596 5592 5588 5584 5579 5574 5569 5564 5560 5556 5550 5545 5540 5535 5531 5527 5522 5517 5513 5509 5505 5501 5497 5492
5634 5631 5628 5625 5622 5618 5615 5612 5608 5604 5600 5596 5592 5588 5583 5579 5575 5571 5566 5562 5557 5552 5547 5543 5539 5534 5529 5524 5519 5515 5510 5506 5501 5497 5493 5489 5485 5480
5621 5618 5615 5612 5609 5606 5603 5600 5596 5592 5587 5583 5579 5575 5570 5566 5562 5558 5553 5549 5545 5541 5535 5531 5527 5523 5519 5513 5508 5504 5499 5494 5490 5485 5481 5477 5473 5469
5609 5605 5602 5599 5596 5592 5589 5586 5583 5579 5575 5571 5567 5562 5558 5554 5549 5545 5540 5536 5532 5529 5524 5519 5515 5510 5508 5504 5498 5493 5488 5483 5478 5474 5469 5465 5460 5457
5596 5593 5590 5586 5583 5579 5576 5573 5569 5566 5563 5559 5555 5551 5546 5542 5537 5533 5529 5524 5520 5516 5511 5507 5503 5498 5494 5492 5488 5483 5478 5473 5468 5463 5458 5453 5449 5445
5583 5580 5577 5573 5570 5567 5563 5560 5557 5553 5550 5547 5543 5539 5535 5531 5527 5522 5518 5513 5508 5504 5499 5495 5491 5487 5484 5480 5477 5473 5468 5462 5458 5453 5448 5444 5439 5435
5569 5567 5564 5561 5558 5555 5551 5548 5545 5542 5538 5535 5532 5528 5524 5520 5516 5512 5507 5502 5498 5493 5488 5484 5480 5476 5473 5469 5466 5462 5458 5453 5448 5444 5439 5434 5430 5425
5557 5554 5551 5549 5546 5543 5540 5536 5533 5530 5527 5524 5520 5517 5513 5509 5506 5501 5497 5493 5488 5484 5478 5474 5470 5467 5463 5459 5455 5452 5447 5443 5439 5434 5429 5424 5419 5415
5545 5542 5540 5537 5535 5532 5528 5525 5522 5519 5516 5513 5509 5506 5503 5499 5495 5491 5487 5482 5478 5474 5470 5465 5461 5457 5454 5450 5447 5442 5438 5433 5428 5424 5419 5415 5410 5405
5533 5531 5529 5526 5523 5521 5517 5514 5511 5508 5505 5502 5499 5495 5492 5488 5485 5481 5477 5473 5469 5465 5461 5457 5453 5449 5446 5441 5437 5433 5429 5424 5419 5414 5409 5405 5402 5397
5522 5520 5518 5515 5512 5509 5507 5504 5501 5498 5495 5492 5488 5485 5482 5478 5475 5471 5468 5464 5460 5456 5452 5448 5444 5440 5437 5434 5429 5423 5419 5414 5410 5405 5400 5395 5392 5388
5511 5509 5507 5504 5502 5499 5496 5493 5491 5488 5485 5482 5478 5475 5472 5469 5466 5462 5459 5455 5451 5447 5443 5439 5435 5431 5428 5424 5420 5415 5409 5404 5400 5396 5391 5387 5383 5379
5501 5498 5496 5494 5491 5488 5486 5483 5481 5478 5475 5472 5469 5466 5463 5460 5457 5453 5450 5446 5442 5438 5435 5431 5427 5423 5419 5415 5412 5407 5401 5395 5390 5386 5382 5378 5375 5372
5490 5488 5486 5483 5481 5479 5476 5474 5472 5469 5466 5464 5461 5458 5455 5452 5449 5445 5441 5437 5434 5430 5427 5423 5419 5415 5411 5407 5403 5399 5395 5389 5383 5378 5373 5369 5366 5363
5480 5478 5476 5474 5472 5470 5467 5465 5463 5461 5458 5455 5452 5450 5447 5444 5440 5437 5433 5429 5426 5422 5419 5415 5411 5407 5403 5399 5395 5391 5387 5383 5378 5374 5369 5363 5359 5356